Naples, Italy

9:47 AM CEST on May 27, 2017 (GMT +0200)
Capodichino Mil

Weather History for LIRN - December, 2012

Change the Weather History Date:

Sunday, December 9, 2012

  Actual Average Record
Temperature  
Mean Temperature 44 °F -  
Max Temperature 48 °F 55 °F 73 °F (2000)
Min Temperature 39 °F 40 °F 30 °F (1998)
Degree Days  
Heating Degree Days 22    
Moisture  
Dew Point 26 °F    
Average Humidity 52    
Maximum Humidity 66    
Minimum Humidity 34    
Precipitation  
Precipitation 0.00 in 0.15 in - ()
Sea Level Pressure  
Sea Level Pressure 29.87 in    
Wind  
Wind Speed 10 mph ()    
Max Wind Speed 18 mph    
Max Gust Speed -    
Visibility 6.2 miles    
Events      
Averages and records for this station are not official NWS values.
T = Trace of Precipitation, MM = Missing Value Source: Averaged Metar Reports

Daily Weather History Graph

Daily Weather History Graph

Search for Another Location

Airport or City:

Trip Planner

Search our weather history database for the weather conditions in past years. The results will help you decide how hot, cold, wet, or windy it might be!

Date:

Astronomy

Dec. 09, 2012 Rise Set
Actual Time 7:15 AM CET 4:34 PM CET
Civil Twilight 6:44 AM CET 5:05 PM CET
Nautical Twilight 6:10 AM CET 5:40 PM CET
Astronomical Twilight 5:37 AM CET 6:13 PM CET
Moon 2:27 AM CET (12/9) 1:31 PM CET (12/9)
Length of Visible Light 10h 20m
Length of Day
9h 19m
Waning Crescent, 21% of the Moon is Illuminated
Dec 9
Waning Crescent
Dec 13
New
Dec 20
First Quarter
Dec 28
Full
Jan 5
Last Quarter

Hourly Weather History & Observations

Time (CET) Temp. Windchill Dew Point Humidity Pressure Visibility Wind Dir Wind Speed Gust Speed Precip Events Conditions
12:20 AM 42.8 °F 38.0 °F 32.0 °F 66% 29.65 in 5.0 mi ENE 8.1 mph - N/A   Scattered Clouds
12:50 AM 42.8 °F 37.0 °F 32.0 °F 66% 29.65 in 6.2 mi ENE 10.4 mph - N/A   Partly Cloudy
1:20 AM 42.8 °F 38.0 °F 32.0 °F 66% 29.65 in 6.2 mi ENE 8.1 mph - N/A   Partly Cloudy
2:20 AM 41.0 °F 35.8 °F 30.2 °F 65% 29.68 in 6.2 mi NE 8.1 mph - N/A   Partly Cloudy
2:50 AM 41.0 °F 35.8 °F 30.2 °F 65% 29.68 in - NE 8.1 mph - N/A   Unknown
3:20 AM 42.8 °F 36.2 °F 28.4 °F 57% 29.71 in 6.2 mi NNE 12.7 mph - N/A   Partly Cloudy
3:50 AM 41.0 °F 34.3 °F 28.4 °F 61% 29.71 in 6.2 mi NNE 11.5 mph - N/A   Partly Cloudy
4:20 AM 41.0 °F 34.3 °F 28.4 °F 61% 29.71 in 6.2 mi NNE 11.5 mph - N/A   Partly Cloudy
4:50 AM 41.0 °F 33.9 °F 26.6 °F 57% 29.74 in 6.2 mi NNE 12.7 mph - N/A   Partly Cloudy
5:20 AM 41.0 °F 33.1 °F 26.6 °F 57% 29.74 in - NNE 15.0 mph - N/A   Clear
5:50 AM 41.0 °F 34.3 °F 26.6 °F 57% 29.74 in - NE 11.5 mph - N/A   Clear
6:20 AM 41.0 °F 35.2 °F 26.6 °F 57% 29.77 in - NE 9.2 mph - N/A   Clear
6:50 AM 41.0 °F 34.7 °F 28.4 °F 61% 29.77 in 6.2 mi NNE 10.4 mph - N/A   Partly Cloudy
7:20 AM 41.0 °F 34.3 °F 28.4 °F 61% 29.80 in - NE 11.5 mph - N/A   Clear
7:50 AM 41.0 °F 33.5 °F 26.6 °F 57% 29.80 in 6.2 mi NE 13.8 mph - N/A   Partly Cloudy
8:20 AM 42.8 °F 35.8 °F 28.4 °F 57% 29.83 in 6.2 mi NE 13.8 mph - N/A   Partly Cloudy
8:50 AM 42.8 °F 35.8 °F 26.6 °F 53% 29.83 in - NE 13.8 mph - N/A   Clear
9:20 AM 44.6 °F 39.2 °F 28.4 °F 53% 29.83 in - NE 10.4 mph - N/A   Clear
9:50 AM 46.4 °F 40.4 °F 28.4 °F 50% 29.86 in - NE 13.8 mph - N/A   Clear
10:20 AM 46.4 °F 39.8 °F 28.4 °F 50% 29.86 in - NE 16.1 mph - N/A   Clear
10:50 AM 48.2 °F - 26.6 °F 43% 29.86 in - NE 13.8 mph - N/A   Clear
11:20 AM 46.4 °F 39.8 °F 26.6 °F 46% 29.86 in 6.2 mi NE 16.1 mph - N/A   Partly Cloudy
11:50 AM 48.2 °F - 28.4 °F 46% 29.86 in 6.2 mi NNE 15.0 mph - N/A   Partly Cloudy
12:20 PM 48.2 °F - 26.6 °F 43% 29.89 in 6.2 mi NE 15.0 mph - N/A   Scattered Clouds
12:50 PM 48.2 °F - 26.6 °F 43% 29.86 in 6.2 mi NE 17.3 mph - N/A   Scattered Clouds
1:20 PM 48.2 °F - 24.8 °F 40% 29.89 in 6.2 mi NNE 17.3 mph - N/A   Scattered Clouds
1:50 PM 48.2 °F - 24.8 °F 40% 29.89 in 6.2 mi NNE 18.4 mph - N/A   Scattered Clouds
2:20 PM 46.4 °F 40.4 °F 24.8 °F 43% 29.89 in 6.2 mi NNE 13.8 mph - N/A   Partly Cloudy
2:50 PM 48.2 °F - 21.2 °F 34% 29.92 in 6.2 mi North 12.7 mph - N/A   Partly Cloudy
3:20 PM 46.4 °F 41.1 °F 21.2 °F 37% 29.92 in 6.2 mi North 11.5 mph - N/A   Mostly Cloudy
3:50 PM 46.4 °F 40.7 °F 23.0 °F 40% 29.92 in 6.2 mi North 12.7 mph - N/A   Mostly Cloudy
4:20 PM 44.6 °F 38.4 °F 24.8 °F 46% 29.95 in 6.2 mi NE 12.7 mph - N/A   Mostly Cloudy
4:50 PM 42.8 °F 37.5 °F 26.6 °F 53% 29.95 in 6.2 mi NNE 9.2 mph - N/A   Scattered Clouds
5:20 PM 42.8 °F 38.6 °F 28.4 °F 57% 29.98 in 6.2 mi NNE 6.9 mph - N/A   Scattered Clouds
5:50 PM 41.0 °F 36.4 °F 26.6 °F 57% 29.98 in 6.2 mi North 6.9 mph - N/A   Scattered Clouds
6:20 PM 42.8 °F 37.5 °F 26.6 °F 53% 29.98 in 6.2 mi North 9.2 mph - N/A   Scattered Clouds
6:50 PM 42.8 °F 37.5 °F 24.8 °F 49% 29.98 in 6.2 mi North 9.2 mph - N/A   Partly Cloudy
7:20 PM 42.8 °F 40.1 °F 24.8 °F 49% 30.01 in 6.2 mi NNW 4.6 mph - N/A   Partly Cloudy
7:50 PM 41.0 °F 39.0 °F 24.8 °F 53% 30.01 in - NW 3.5 mph - N/A   Clear
8:20 PM 42.8 °F 35.8 °F 23.0 °F 46% 30.01 in - NNW 13.8 mph - N/A   Clear
8:50 PM 42.8 °F 36.6 °F 21.2 °F 42% 30.01 in - NNW 11.5 mph - N/A   Clear
9:20 PM 41.0 °F 35.2 °F 23.0 °F 49% 30.01 in - NNW 9.2 mph - N/A   Clear
9:50 PM 41.0 °F 37.1 °F 23.0 °F 49% 30.01 in - NNW 5.8 mph - N/A   Clear
10:20 PM 41.0 °F 37.1 °F 23.0 °F 49% 30.01 in - NW 5.8 mph - N/A   Clear
10:50 PM 39.2 °F 35.9 °F 23.0 °F 52% 30.01 in - NNW 4.6 mph - N/A   Clear
11:20 PM 41.0 °F 37.1 °F 21.2 °F 45% 30.04 in - NW 5.8 mph - N/A   Clear
11:50 PM 39.2 °F 35.9 °F 23.0 °F 52% 30.04 in - North 4.6 mph - N/A   Clear